CZ-4C DEB, 40113

Orbit data source: Space-Track

CZ-4C DEB, 40113 is space debris in LEO originally from a launch on Sat, 09 Aug 2014 UTC launched from the Jiuquan Satellite Launch Center, China (JSC). Debris objects in space refer to the collection of defunct objects orbiting the Earth. Examples of debris include non-operational satellites, rocket bodies, and fragments generated from explosions, collisions, or faulty payload assembly.

Loading next visibility...
Identifier
40113, 2014-047E
Orbit
LEO
Last TLE update
17 hours ago
Origin
Manufacturer
CAST
Mission
Spacecraft
Bus & Motor
Unknown
Mass
Unknown
Launch date (UTC)
2014-08-09 (11 years ago)
Launch vehicle
Unknown
Launch site
Jiuquan Satellite Launch Center, China (JSC)
Object type
Payload
Rocket body
Debris
Shape & HBR
Unknown
Radar Cross Section
8.300 m², Large (>1 m²)

Expand to show TLE details & history

TLE from 17 hours ago
0 CZ-4C DEB
1 40113U 14047E   25199.66706573  .00000064  00000-0  17754-3 0  9998
2 40113  63.3804 178.9307 0363604  13.9163 347.1567 13.44600499537115
Epoch: 2025-07-18T16:00Z
TLE epoch observation values (Epoch: 2025-07-18T16:00:34.479Z)
Latitude
0.00007°
Longitude
2.07184°
Altitude
829.618 km
Speed
7.569 km/s
True Right ascension
11h 55m 43s
True Declination
0° 00' 00"
Sunlit
Object was in daylight at epoch
Visualization orbit readout
Latitude
-59.61752°
Longitude
-121.51328°
Altitude
1,239.992 km
Speed
7.173 km/s
Apparent Right ascension
07h 26m 22s
Apparent Declination
-61° 10' 10"
Sunlit
Object is in daylight
Visualization observer readout
Local Sidereal Time
22:10:08
Azimuth
144.202° SSE
Elevation
-57.299°
Doppler factor
1
Orbital elements
Apogee altitude
1,362.602 km
Perigee altitude
819.439 km
Semi-major axis
7,469.158 km
Eccentricity
0.03636
Inclination
63.3804°
RAAN
178.9307°
Arg. of periapsis
13.9163°
True anomaly
346.18771°
Mean anomaly
347.1567°
Eccentric anomaly
346.67661°
Mean motion
3.36229 °/min
Orbital period
107.07 mins
BSTAR
0.00017754
Loading maneuver chart data...
Loading SW <> Apogee altitude chart data...
Loading historical data...
Loading historical data...
Loading historical data...
Loading historical data...
Loading historical data...
Loading historical data...
Loading historical data...
|